Coatesville, PA

5:09 PM EST on November 18, 2019 (GMT -0500)
Chester County Carlson

Weather History for KMQS - September, 2019

Change the Weather History Date:

Thursday, September 5, 2019

  Actual Average (KILG) Record (KILG)
Temperature  
Mean Temperature 68 °F -  
Max Temperature 73 °F 80 °F 93 °F (1961)
Min Temperature 62 °F 62 °F 48 °F (1997)
Cooling Degree Days 2    
Growing Degree Days 18 (Base 50)    
Moisture  
Dew Point 59 °F    
Average Humidity 74    
Maximum Humidity 88    
Minimum Humidity 64    
Precipitation  
Precipitation 0.35 in - - ()
Sea Level Pressure  
Sea Level Pressure 30.07 in    
Wind  
Wind Speed 4 mph ()    
Max Wind Speed 9 mph    
Max Gust Speed 14 mph    
Visibility 10.0 miles    
Events      
Averages and records for this station are not official NWS values.
T = Trace of Precipitation, MM = Missing Value Source: Averaged Metar Reports

Daily Weather History Graph

Daily Weather History Graph

Search for Another Location

Airport or City:

Astronomy

Sep. 05, 2019 Rise Set
Actual Time 6:34 AM EDT 7:28 PM EDT
Civil Twilight 6:07 AM EDT 7:56 PM EDT
Nautical Twilight 5:34 AM EDT 8:29 PM EDT
Astronomical Twilight 5:00 AM EDT 9:02 PM EDT
Moon 1:38 PM EDT (9/5) 11:43 PM EDT (9/5)
Length of Visible Light 13h 49m
Length of Day
12h 54m
Waxing Crescent, 45% of the Moon is Illuminated
Sep 5
Waxing Crescent
Sep 5
First Quarter
Sep 14
Full
Sep 21
Last Quarter
Sep 28
New

Hourly Weather History & Observations

Time (EDT) Temp. Dew Point Humidity Pressure Visibility Wind Dir Wind Speed Gust Speed Precip Events Conditions
12:15 AM 71.6 °F 60.8 °F 69% 30.02 in 10.0 mi North 6.9 mph - N/A   Clear
12:35 AM 71.6 °F 60.8 °F 69% 30.03 in 10.0 mi North 5.8 mph - N/A   Clear
12:55 AM 69.8 °F 60.8 °F 73% 30.04 in - NNE 5.8 mph 11.5 mph N/A   Clear
1:15 AM 69.8 °F 60.8 °F 73% 30.03 in 10.0 mi North 9.2 mph - N/A   Clear
1:35 AM 69.8 °F 59.0 °F 68% 30.04 in 10.0 mi North 8.1 mph - N/A   Clear
1:55 AM 68.0 °F 59.0 °F 73% 30.04 in 10.0 mi North 9.2 mph - N/A   Clear
2:15 AM 68.0 °F 59.0 °F 73% 30.05 in 10.0 mi North 5.8 mph - N/A   Clear
2:35 AM 68.0 °F 59.0 °F 73% 30.05 in 10.0 mi North 5.8 mph - N/A   Clear
2:55 AM 66.2 °F 59.0 °F 78% 30.05 in 10.0 mi North 8.1 mph - N/A   Clear
3:15 AM 66.2 °F 59.0 °F 78% 30.05 in 10.0 mi NNE 4.6 mph - N/A   Clear
3:35 AM 66.2 °F 59.0 °F 78% 30.05 in 10.0 mi North 6.9 mph - N/A   Clear
3:55 AM 64.4 °F 59.0 °F 83% 30.06 in 10.0 mi Calm Calm - N/A   Clear
4:15 AM 64.4 °F 59.0 °F 83% 30.06 in 10.0 mi Calm Calm - N/A   Clear
4:35 AM 64.4 °F 59.0 °F 83% 30.06 in 10.0 mi NNE 3.5 mph - N/A   Clear
4:55 AM 64.4 °F 59.0 °F 83% 30.07 in 10.0 mi North 4.6 mph - N/A   Clear
5:15 AM 62.6 °F 59.0 °F 88% 30.07 in 10.0 mi North 4.6 mph - N/A   Clear
5:35 AM 64.4 °F 59.0 °F 83% 30.07 in 10.0 mi NNE 5.8 mph - N/A   Clear
6:15 AM 62.6 °F 59.0 °F 88% 30.08 in 10.0 mi Calm Calm - N/A   Clear
6:35 AM 62.6 °F 59.0 °F 88% 30.09 in 10.0 mi Calm Calm - N/A   Clear
6:55 AM 62.6 °F 57.2 °F 82% 30.09 in 10.0 mi NNE 5.8 mph - N/A   Clear
7:15 AM 62.6 °F 57.2 °F 82% 30.10 in - Calm Calm - N/A   Clear
7:35 AM 62.6 °F 57.2 °F 82% 30.11 in 10.0 mi NE 3.5 mph - N/A   Partly Cloudy
7:55 AM 62.6 °F 57.2 °F 82% 30.11 in 10.0 mi NNE 4.6 mph - N/A   Clear
8:15 AM 62.6 °F 55.4 °F 77% 30.11 in 10.0 mi NE 5.8 mph - N/A   Clear
8:35 AM 62.6 °F 55.4 °F 77% 30.11 in 10.0 mi NE 5.8 mph - N/A   Clear
8:55 AM 64.4 °F 55.4 °F 73% 30.11 in 10.0 mi NE 5.8 mph - N/A   Clear
9:15 AM 64.4 °F 55.4 °F 73% 30.12 in 10.0 mi NE 5.8 mph 13.8 mph N/A   Clear
9:35 AM 64.4 °F 55.4 °F 73% 30.12 in 10.0 mi NE 4.6 mph - N/A   Clear
9:55 AM 66.2 °F 55.4 °F 68% 30.12 in 10.0 mi ENE 5.8 mph 11.5 mph N/A   Partly Cloudy
10:15 AM 66.2 °F 55.4 °F 68% 30.12 in 10.0 mi ENE 3.5 mph 11.5 mph N/A   Scattered Clouds
10:35 AM 66.2 °F 57.2 °F 73% 30.12 in 10.0 mi Variable 4.6 mph - N/A   Mostly Cloudy
10:55 AM 66.2 °F 57.2 °F 73% 30.11 in 10.0 mi NE 3.5 mph 13.8 mph N/A   Overcast
11:15 AM 68.0 °F 57.2 °F 68% 30.11 in 10.0 mi Calm Calm - N/A   Scattered Clouds
11:35 AM 68.0 °F 57.2 °F 68% 30.12 in 10.0 mi North 8.1 mph - N/A   Mostly Cloudy
11:55 AM 69.8 °F 57.2 °F 64% 30.12 in 10.0 mi ENE 5.8 mph - N/A   Mostly Cloudy
12:15 PM 69.8 °F 57.2 °F 64% 30.12 in 10.0 mi Calm Calm - N/A   Mostly Cloudy
12:35 PM 69.8 °F 57.2 °F 64% 30.11 in 10.0 mi NNE 4.6 mph - N/A   Scattered Clouds
12:55 PM 69.8 °F 59.0 °F 68% 30.11 in 10.0 mi Variable 4.6 mph - N/A   Clear
1:15 PM 71.6 °F 59.0 °F 64% 30.10 in 10.0 mi NNE 4.6 mph - N/A   Clear
1:35 PM 71.6 °F 59.0 °F 64% 30.10 in 10.0 mi Variable 4.6 mph - N/A   Clear
1:55 PM 71.6 °F 59.0 °F 64% 30.10 in 10.0 mi ENE 6.9 mph - N/A   Clear
2:15 PM 71.6 °F 59.0 °F 64% 30.10 in 10.0 mi Variable 3.5 mph - N/A   Clear
2:35 PM 71.6 °F 59.0 °F 64% 30.09 in 10.0 mi East 6.9 mph - N/A   Clear
2:55 PM 71.6 °F 59.0 °F 64% 30.09 in 10.0 mi Variable 3.5 mph - 0.35 in   Clear
3:15 PM 71.6 °F 59.0 °F 64% 30.09 in 10.0 mi Calm Calm - N/A   Clear
3:35 PM 73.4 °F 60.8 °F 65% 30.08 in 10.0 mi Calm Calm - N/A   Clear
3:55 PM 71.6 °F 59.0 °F 64% 30.07 in 10.0 mi Calm Calm - N/A   Clear
4:15 PM 71.6 °F 59.0 °F 64% 30.06 in 10.0 mi Calm Calm - N/A   Clear
4:35 PM 71.6 °F 60.8 °F 69% 30.06 in 10.0 mi NNE 4.6 mph - N/A   Clear
4:55 PM 71.6 °F 59.0 °F 64% 30.06 in 10.0 mi Calm Calm - N/A   Clear
5:15 PM 71.6 °F 59.0 °F 64% 30.05 in 10.0 mi NNE 4.6 mph - N/A   Clear
5:35 PM 71.6 °F 59.0 °F 64% 30.06 in 10.0 mi NNE 4.6 mph - N/A   Clear
5:55 PM 69.8 °F 60.8 °F 73% 30.06 in 10.0 mi NNE 3.5 mph - N/A   Clear
6:15 PM 69.8 °F 60.8 °F 73% 30.06 in 10.0 mi North 3.5 mph - N/A   Clear
6:35 PM 69.8 °F 60.8 °F 73% 30.06 in 10.0 mi North 3.5 mph - N/A   Clear
6:55 PM 69.8 °F 60.8 °F 73% 30.06 in 10.0 mi Calm Calm - N/A   Partly Cloudy
7:15 PM 68.0 °F 60.8 °F 78% 30.07 in 10.0 mi North 4.6 mph - N/A   Scattered Clouds
7:35 PM 68.0 °F 60.8 °F 78% 30.06 in 10.0 mi Calm Calm - N/A   Scattered Clouds
7:55 PM 68.0 °F 60.8 °F 78% 30.06 in 10.0 mi North 4.6 mph - N/A   Clear
8:15 PM 66.2 °F 60.8 °F 83% 30.06 in 10.0 mi North 5.8 mph - N/A   Clear
8:35 PM 68.0 °F 60.8 °F 78% 30.06 in 10.0 mi NNE 4.6 mph - N/A   Clear
8:55 PM 66.2 °F 60.8 °F 83% 30.06 in 10.0 mi Calm Calm - N/A   Clear
9:15 PM 66.2 °F 60.8 °F 83% 30.06 in 10.0 mi Calm Calm - N/A   Clear
9:35 PM 66.2 °F 60.8 °F 83% 30.06 in 10.0 mi Calm Calm - N/A   Clear
9:55 PM 66.2 °F 60.8 °F 83% 30.05 in 10.0 mi Calm Calm - N/A   Clear
10:15 PM 66.2 °F 59.0 °F 78% 30.05 in 10.0 mi Calm Calm - N/A   Clear
10:35 PM 64.4 °F 59.0 °F 83% 30.05 in 10.0 mi Calm Calm - N/A   Clear
10:55 PM 64.4 °F 59.0 °F 83% 30.04 in 10.0 mi ENE 3.5 mph - N/A   Clear
11:15 PM 64.4 °F 59.0 °F 83% 30.04 in 10.0 mi Calm Calm - N/A   Clear
11:35 PM 64.4 °F 59.0 °F 83% 30.04 in 10.0 mi Calm Calm - N/A   Clear
11:55 PM 64.4 °F 59.0 °F 83% 30.02 in 10.0 mi Calm Calm - N/A   Clear